Terug naar catalogus

STARLINK-31107

ActiefCommunicatieVLEO
NORAD 58684·PAYLOAD·🇺🇸 United States

Gelanceerd Dec 29, 2023 vanaf Cape Canaveral Space Force Station

Loading…

Volgende Passages (komende 24 uur)

TLE

VersSource: CelesTrak SupGP

Epoch: Sep 14, 2026, 21:39 UTC

1 58684C 23211T   26257.90256944  .00005869  00000+0  21262-3 0  2571
2 58684  43.0028  97.0972 0001353 275.5018 230.2303 15.27570533    16

Volg STARLINK-31107 in realtime met AllMySat

Download on the App Store